Regional Weather Roundup
Issued by NWS

Home | Current Version | Previous Version | Graphics & Text | Print | Product List | Glossary On
Versions: 1 2 3 4 5 6 7 8 9 10 11 12 13 14 15 16 17 18 19 20 21 22 23 24 25 26 27 28 29 30 31 32 33 34 35 36 37 38 39 40 41 42 43 44 45 46 47 48 49 50
000
ASUS43 KLOT 251209
RWRIL

ILLINOIS REGIONAL WEATHER ROUNDUP
NATIONAL WEATHER SERVICE CHICAGO/ROMEOVILLE IL
700 AM CDT MON SEP 25 2017

NOTE: "FAIR" INDICATES FEW OR NO CLOUDS BELOW 12,000 FEET WITH NO
SIGNIFICANT WEATHER AND/OR OBSTRUCTIONS TO VISIBILITY.

* THESE STATIONS ARE NOT UNDER NWS QUALITY CONTROL. THEY ALSO MAY NOT
  REPORT WEATHER SUCH AS PRECIPITATION OR FOG.

ILZ001-002-007-009-015-016-024-251300-
NORTHWEST ILLINOIS

CITY           SKY/WX    TMP DP  RH WIND       PRES   REMARKS
MOLINE         CLEAR     63  59  87 E6        29.97R
6HR MIN TEMP:  63; 6HR MAX TEMP:  72;

STERLING*      PTCLDY    62  60  93 E5        30.00R
SAVANNA*       CLEAR     61  60  96 NE3       29.99R
$$

ILZ003-004-008-010-011-017-018-251300-
NORTH CENTRAL ILLINOIS

CITY           SKY/WX    TMP DP  RH WIND       PRES   REMARKS
ROCKFORD       MOCLDY    66  59  78 S5        30.01R
6HR MIN TEMP:  64; 6HR MAX TEMP:  69;

FREEPORT*      CLEAR     63  58  84 CALM      30.02R
ROCHELLE*      PTCLDY    63  60  88 CALM      30.01S
DE KALB*       CLEAR     62  58  88 S3        30.03R
PERU*          MOCLDY    66  59  76 CALM      30.01R
$$

ILZ005-006-012>014-019>023-251300-
NORTHEAST ILLINOIS

CITY           SKY/WX    TMP DP  RH WIND       PRES   REMARKS
CHICAGO-OHARE  PTCLDY    68  57  68 CALM      30.01R
6HR MIN TEMP:  67; 6HR MAX TEMP:  74;

CHICAGO-MIDWAY PTCLDY    71  57  61 S5        30.01S
6HR MIN TEMP:  71; 6HR MAX TEMP:  78;

AURORA         CLEAR     62  59  90 CALM      30.02R
6HR MIN TEMP:  62; 6HR MAX TEMP:  70;

LANSING*       CLEAR     65  59  81 CALM      30.03S
JOLIET*        CLEAR     64  61  93 CALM      30.02R
WAUKEGAN       CLEAR     66  61  84 VRB3      30.01R
6HR MIN TEMP:  62; 6HR MAX TEMP:  70;

DUPAGE AIRPORT CLEAR     64  59  83 CALM      30.01S
6HR MIN TEMP:  62; 6HR MAX TEMP:  70;

KANKAKEE*      CLEAR     60  58  93 SE5       30.04R
WHEELING       CLEAR     67  61  81 CALM      30.02R
6HR MIN TEMP:  63; 6HR MAX TEMP:  71;

MORRIS*        CLEAR     66  59  77 CALM      30.01R
ROMEOVILLE*    CLEAR     64  58  81 S5        30.02R
NORTHERLY ISL    N/A     73  55  53 S5          N/A
$$

LMZ740>746-251300-
SOUTHERN LAKE MICHIGAN

STATION/POSITION SKY/WX   TEMP    WIND        PRES    VSBY  WAVE
                          AIR SEA DIR/SP/G                  HT/PER
                          (F)     (DEG/KT/KT) (MB)    (MI)  (FT/S)
SOUTHERN BUOY              72 71  160/  8/ 10 1016.1          1
WILMETTE HARBOR            72 69  160/  4/  6   N/A           1
HARRISON CRIB              76     190/ 11/ 12   N/A
BURNHAM HARBOR             72                   N/A
CALUMET HARBOR             71     170/  4/  5 1015.9R
BURNS HARBOR               70     160/  7/ 11 1017.3R
MICHIGAN CITY              68     140/  9/ 10   N/A
MICHIGAN CITY 6N           69 72  170/  8/ 10   N/A           1
ST. JOSEPH                 71 71  170/  8/ 10 1016.9          1
$$

ILZ025>027-034>036-040-047-049-050-058-095>099-251300-
WEST-CENTRAL ILLINOIS

CITY           SKY/WX    TMP DP  RH WIND       PRES   REMARKS
QUINCY         CLEAR     69  63  81 S3        29.98R
GALESBURG*     CLEAR     65  60  82 SE3       30.00R
MACOMB*        PTCLDY    60  58  95 CALM      30.01R
JACKSONVILLE*  CLEAR     64  62  91 SE3       30.00R
PITTSFIELD*    PTCLDY    63  62  96 SE3       30.01R
$$

ILZ028>032-037-038-041>044-048-051>054-059>061-251300-
CENTRAL ILLINOIS

CITY           SKY/WX    TMP DP  RH WIND       PRES   REMARKS
PONTIAC        CLEAR     62  61  98 CALM      30.02R
BLOOMINGTON    PTCLDY    66  61  84 S6        30.03S
DECATUR        CLEAR     61  59  93 E3        30.02R
PEORIA         MOCLDY    68  62  81 CALM      30.01R
6HR MIN TEMP:  67; 6HR MAX TEMP:  75;

LACON*         MOCLDY    66  61  82 SE5       30.00R
LINCOLN*       PTCLDY    64  62  93 CALM      30.01S
SPRINGFIELD    CLEAR     65  62  90 S5        30.01R
6HR MIN TEMP:  63; 6HR MAX TEMP:  74;

TAYLORVILLE    CLEAR     63  60  92 S5        30.02R
6HR MIN TEMP:  63; 6HR MAX TEMP:  70;

$$

ILZ033-039-045-046-055>057-062-063-251300-
EAST-CENTRAL ILLINOIS

CITY           SKY/WX    TMP DP  RH WIND       PRES   REMARKS
CHAMPAIGN      CLEAR     63  57  81 SE5       30.04R
RANTOUL*       CLEAR     66  60  81 CALM      30.04R
MATTOON        CLEAR     66  61  84 S3        30.02R
PARIS*         CLEAR     62  59  91 CALM      30.05R
$$

ILZ079-100>102-251300-
SOUTHWEST ILLINOIS

CITY           SKY/WX    TMP DP  RH WIND       PRES   REMARKS
ALTON          CLEAR     61  61 100 E5        30.02R
BELLEVILLE     CLEAR     64  62  95 N3        30.01R
CAHOKIA*       CLEAR     67  63  87 CALM      30.01R
SPARTA*        CLEAR     67  64  90 CALM      30.03R
$$

ILZ064>066-069>071-074>076-080>082-084>086-088>090-092>094-251300-
SOUTH-CENTRAL ILLINOIS

CITY           SKY/WX    TMP DP  RH WIND       PRES   REMARKS
CARBONDALE     CLEAR     63  63 100 CALM      30.02R
6HR MIN TEMP:  62; 6HR MAX TEMP:  65;

CAIRO*         FOG       61  61 100 CALM      30.03R VSB 1/4
EFFINGHAM*     CLEAR     61  61  99 CALM      30.05R
MARION         CLEAR     66  66 100 MISG      30.04R
MT. VERNON       N/A     60  60 100 CALM      30.04R FOG
CENTRALIA*     CLEAR     61  61  99 CALM      30.02S
SALEM*         CLEAR     63  60  92 CALM      30.03R
METROPOLIS*    CLEAR     63  62  97 CALM      30.03S FOG
$$

ILZ067-068-072-073-078-083-087-091-251300-
SOUTHEAST ILLINOIS

CITY           SKY/WX    TMP DP  RH WIND       PRES   REMARKS
LAWRENCEVILLE  PTCLDY    65  62  90 CALM      30.03R
FLORA*         PTCLDY    64  62  93 CALM      30.03S
FAIRFIELD*     CLEAR     62  60  96 CALM      30.02S
HARRISBURG*    CLEAR     62  62  99 CALM      30.03R FOG
ROBINSON*      PTCLDY    60  60  99 CALM      30.04R
CARMI*         PTCLDY    62  62  99 CALM      30.02R FOG
$$

ABBREVIATIONS USED IN REMARKS
   TC - TEMPERATURE IN CELSIUS
  WCI - WIND CHILL INDEX
   HX - HEAT INDEX
  VSB - VISIBILITY
$$




USA.gov is the U.S. government's official web portal to all federal, state and local government web resources and services.